Weather Roundup
Issued by NWS Chicago, IL

Home | Current Version | Previous Version | Graphics & Text | Print | Product List | Glossary On
Versions: 1 2 3 4 5 6 7 8 9 10 11 12 13 14 15 16 17 18 19 20 21 22 23 24 25 26 27 28 29 30 31 32 33 34 35 36 37 38 39 40 41 42 43 44 45 46 47 48 49 50
000
NZUS59 KLOT 092308
HRRLOT

CHICAGO AREA WEATHER ROUNDUP
NATIONAL WEATHER SERVICE CHICAGO/ROMEOVILLE IL
500 PM CST TUE FEB 09 2016

NOTE: "FAIR" INDICATES FEW OR NO CLOUDS BELOW 12,000 FEET WITH NO
SIGNIFICANT WEATHER AND/OR OBSTRUCTIONS TO VISIBILITY.

* THESE STATIONS ARE NOT UNDER NWS QUALITY CONTROL. THEY ALSO MAY NOT
  REPORT WEATHER SUCH AS PRECIPITATION OR FOG.

ILZ005-006-012>014-019>023-100000-
NORTHEAST ILLINOIS

CITY           SKY/WX    TMP DP  RH WIND       PRES   REMARKS
OHARE          CLOUDY    17   7  64 NW14      29.90R WCI   3
MIDWAY         FLURRIES  18   6  59 NW14      29.91R WCI   4
AURORA         CLOUDY    18   9  68 NW17      29.92R WCI   3
LANSING*       FLURRIES  17   8  65 NW12      29.91R WCI   5
JOLIET*        CLOUDY    19   9  67 NW6       29.93R WCI  10
WAUKEGAN       CLOUDY    16   7  67 NW10G18   29.89R WCI   4
DUPAGE AIRPORT CLOUDY    16   6  65 NW14      29.90R WCI   2
WHEELING       CLOUDY    17   7  64 NW13      29.91R WCI   4
KANKAKEE*      FLURRIES  17  10  71 NW12      29.93R WCI   4
MORRIS*        FLURRIES  18   9  70 NW12G18   29.91R WCI   5
LEWIS AIRPORT* FLURRIES  17   9  71 NW13      29.92R WCI   3
$$

WIZ051-052-058>065-066-070>072-100000-
SOUTHEAST WISCONSIN

CITY           SKY/WX    TMP DP  RH WIND       PRES   REMARKS
MILWAUKEE      LGT SNOW  17   8  67 NW10      29.88R WCI   5
KENOSHA*       FLURRIES  16   7  67 NW14G20   29.89R WCI   2
RACINE*        FLURRIES  17   7  64 NW9       29.90R WCI   6
BURLINGTON     LGT SNOW  14   8  76 NW10      29.89R WCI   1
WAUKESHA       LGT SNOW  12   7  79 NW12G20   29.89R WCI  -2
WEST BEND      FLURRIES  18  10  73 CALM      29.86R
$$

INZ001>003-010>013-019-020-100000-
NORTHWEST INDIANA

CITY           SKY/WX    TMP DP  RH WIND       PRES   REMARKS
GARY*          CLOUDY    19   9  63 W14       29.91R WCI   6
MICHIGAN CITY* NOT AVBL
RENSSELAER*    NOT AVBL
VALPARAISO     LGT SNOW  17  12  80 MISG      29.88R
$$

LMZ740>746-100000-
SOUTHERN LAKE MICHIGAN

STATION/POSITION TIME  SKY/WX   TEMP WIND        PRES    VSBY
                                AIR  DIR/SP/G
                 (UTC)          (F)  (DEG/KT/KT) (MB)    (MI)
HARRISON CRIB    2200            18  310/ 15/ 17   N/A
BURNHAM HARBOR   2300            18  310/ 13/ 15   N/A
CALUMET HARBOR   2200            18  300/ 10/ 13 1011.4R
BURNS HARBOR     2220            20  300/ 15/ 20 1011.9R
MICHIGAN CITY    2200            20  260/ 23/ 25   N/A
$$

ABBREVIATIONS USED IN REMARKS
   TC - TEMPERATURE IN CELSIUS
  WCI - WIND CHILL INDEX
   HX - HEAT INDEX
  VSB - VISIBILITY
$$




USA.gov is the U.S. government's official web portal to all federal, state and local government web resources and services.